AirNav   ProFlight Series 2 Aviation Headset
 
 464 users online  

KRYW Lago Vista TX - Rusty Allen Airport
Lago Vista, Texas, USA

GOING TO LAGO VISTA?


FAA INFORMATION EFFECTIVE 16 JULY 2020

Location

FAA Identifier: RYW
Lat/Long: 30-29-54.9000N 097-58-10.1000W
30-29.915000N 097-58.168333W
30.4985833,-97.9694722
(estimated)
Elevation: 1230.4 ft. / 375.0 m (surveyed)
Variation: 04E (2020)
From city: 2 miles NE of LAGO VISTA, TX
Time zone: UTC -5 (UTC -6 during Standard Time)
Zip code: 78645

Airport Operations

Airport use: Open to the public
Activation date: 09/1973
Control tower: no
ARTCC: HOUSTON CENTER
FSS: SAN ANGELO FLIGHT SERVICE STATION
NOTAMs facility: RYW (NOTAM-D service available)
Attendance: 0800-1800
Wind indicator: lighted
Segmented circle: no
Lights: DUSK-DAWN. MIRL RWY 15/33 PRESET LOW INTST; TO INCR INTST ACTVT - CTAF. PAPI RWYS 15 & 33 OPR CONSLY.
Beacon: white-green (lighted land airport)
Operates sunset to sunrise.

Airport Communications

CTAF/UNICOM: 122.725
WX ASOS: 119.375 (512-267-1365)
AUSTIN APPROACH: 119.0 [1300-0500Z++ MON-THU; 1300-2200Z++ FRI; CLSD SAT, SUN AND HOL BY NOTAM. HRS SUBJECT TO CHG IN SUPPORT OF TRAWING-2 FLT OPR]
AUSTIN DEPARTURE: 119.0 [1300-0500Z++ MON-THU; 1300-2200Z++ FRI; CLSD SAT, SUN AND HOL BY NOTAM. HRS SUBJECT TO CHG IN SUPPORT OF TRAWING-2 FLT OPR]
AEROZ DP: 119.0
BNDIA DP: 119.0
ELOEL DP: 119.0
GABOO STAR: 127.225
ILEXY DP: 119.0
MSTLO STAR: 127.225
MUCKY DP: 119.0
POTTR STAR: 127.225
SAYBR DP: 119.0
WX AWOS-3PT at GTU (18 nm NE): PHONE 512-869-3430

Nearby radio navigation aids

VOR radial/distance  VOR name  Freq  Var
CWKr282/23.9CENTEX VORTAC112.8006E
GRKr187/33.0GRAY VOR/DME111.8007E

Airport Services

Fuel available: 100LL
Parking: tiedowns

Runway Information

Runway 15/33

Dimensions: 3808 x 50 ft. / 1161 x 15 m
Surface: asphalt, in excellent condition
Weight bearing capacity: 
Single wheel: 12.5, GWT PER AMGR.
Runway edge lights: medium intensity
RUNWAY 15  RUNWAY 33
Latitude: 30-30.212715N30-29.617755N
Longitude: 097-58.283938W097-58.051307W
Elevation: 1230.4 ft.1209.3 ft.
Traffic pattern: leftleft
Runway heading: 157 magnetic, 161 true337 magnetic, 341 true
Declared distances: TORA:3808 TODA:3808 ASDA:3808 LDA:3808TORA:3808 TODA:3808 ASDA:3808 LDA:3808
Markings: nonprecision, in good conditionnonprecision, in good condition
Visual slope indicator: 2-light PAPI on left (4.00 degrees glide path)2-light PAPI on left (3.50 degrees glide path)
Touchdown point: yes, no lightsyes, no lights
Obstructions: 25 ft. trees, 200 ft. from runway, 90 ft. left of centerline
+20 FT TREES 0-200 FT FM RWY END 125 FT L & R.
10 ft. pline, marked, 200 ft. from runway, 234 ft. left of centerline
+14 FT HNGRS AT THR TO 104 FT FM THR, 159 FT L; +15 FT HANGAR 223 FT R FM 127 FT TO 187 FT FM THR.

Airport Ownership and Management from official FAA records

Ownership: Publicly-owned
Owner: CITY OF LAGO VISTA
5803 THUNDERBIRD DR
LAGO VISTA, TX 78645
Phone 512-267-1155
Manager: ROY JAMBOR
CITY OF LAGO VISTA, 5803 THUNDERBIRD
LAGO VISTA, TX 78645
Phone (512) 527-3540

Airport Operational Statistics

Aircraft based on the field: 61
Single engine airplanes: 53
Multi engine airplanes: 5
Helicopters: 2
Gliders airplanes: 1
    
Aircraft operations: avg 104/day *
75% local general aviation
25% transient general aviation
* for 12-month period ending 12 May 2020

Additional Remarks

DEER (SEASONAL) ON & INVOF RWYS AND TWYS.
UNICOM NOT MNT.
FOR CD CTC AUSTIN APCH AT 512-369-7865.
CALM WIND RWY I5.

Instrument Procedures

NOTE: All procedures below are presented as PDF files. If you need a reader for these files, you should download the free Adobe Reader.

NOT FOR NAVIGATION. Please procure official charts for flight.
FAA instrument procedures published for use from 16 July 2020 at 0901Z to 13 August 2020 at 0900Z.

 
STARs - Standard Terminal Arrivals
BITER NINE **CHANGED**   download (273KB)
BLEWE FOUR **CHANGED**   download (196KB)
GABOO ONE (RNAV) **NEW**   download (138KB)
POTRR ONE (RNAV) **CHANGED**   download (172KB)
 
IAPs - Instrument Approach Procedures
RNAV (GPS) RWY 15   download (270KB)
 
Departure Procedures
AEROZ ONE (RNAV)   download (168KB)
BNDIA TWO (RNAV)   download (151KB)
ELOEL TWO (RNAV)   download (175KB)
ILEXY TWO (RNAV)   download (185KB)
MUCKY TWO (RNAV)   download (149KB)
SAYBR TWO (RNAV)   download (158KB)
NOTE: Special Take-Off Minimums/Departure Procedures apply   download (504KB)

Other nearby airports with instrument procedures:

3R9 - Lakeway Airpark (9 nm S)
KGTU - Georgetown Municipal Airport (18 nm NE)
KBMQ - Burnet Municipal Airport-Kate Craddock Field (20 nm NW)
KEDC - Austin Executive Airport (22 nm E)
KAUS - Austin-Bergstrom International Airport (24 nm SE)
 
Loc | Ops | Rwys | IFR | FBO | Links
Com | Nav | Svcs | Stats | Notes
Area around KRYW (Lago Vista TX - Rusty Allen Airport)
 
Road maps at: MapQuest Bing Google
 
Aerial photo
WARNING: Photo may not be current or correct
Aerial photo of KRYW (Lago Vista TX - Rusty Allen Airport)
Photo by Mike Mee
Taken in March 2016
looking southeast.

Do you have a better or more recent aerial photo of Lago Vista TX - Rusty Allen Airport that you would like to share? If so, please send us your photo.

 
Sectional chart

 
Airport distance calculator
Flying to Lago Vista TX - Rusty Allen Airport? Find the distance to fly.

From to KRYW

Sunrise and sunset
Times for 08-Aug-2020
 Local
(UTC-5)
 Zulu
(UTC)
Morning civil twilight06:3011:30
Sunrise06:5611:56
Sunset20:1901:19
Evening civil twilight20:4401:44

Current date and time
Zulu (UTC)  08-Aug-2020 10:48:39
Local (UTC-5)  08-Aug-2020 05:48:39
 
METAR
KRYW 081035Z AUTO 20005KT 10SM CLR 24/22 A3010 RMK AO2 T02380220
KATT 
18nm SE 
081032Z AUTO 00000KT 10SM BKN015 26/22 A3008 RMK AO2 T02560217 $
KGTU 
19nm NE 
080956Z AUTO 18005KT 10SM CLR 26/23 A3009 RMK AO2 SLP179 T02560228
KAUS 
19nm SE 
080953Z 00000KT 10SM FEW015 23/22 A3006 RMK AO2 SLP166 T02280217
KBMQ 
20nm NW 
080953Z AUTO 17003KT 10SM CLR 24/21 A3010 RMK AO2 SLP173 T02440206
TAF
KAUS 
19nm SE 
080520Z 0806/0912 17005KT P6SM FEW020 FM081100 19005KT P6SM SCT015 FM081300 18008KT P6SM BKN030 FM081600 17011KT P6SM SCT040
NOTAMs
Click for the latest NOTAMs
NOTAMs are issued by the DoD/FAA and will open in a separate window not controlled by AirNav.

 

 
 

FBO, Fuel Providers, and Aircraft Ground Support

  
 Business Name 
 
 Contact 
 
 Services / Description 
 
Fuel Prices
 
Comments
  
Lago Vista Airport 512-527-3540
[web site]
[email]
Aviation fuel, Aircraft parking (ramp or tiedown), Hangars, Hangar leasing / sales, Flight training, Aircraft maintenance, Courtesy transportation

More info about Lago Vista Airport
independent
100LL
SS $3.10 
 Updated 05-Aug-2020
 
   1 read write
SS=Self service
Update Fuel Prices
 

Would you like to see your business listed on this page?

 If your business provides an interesting product or service to pilots, flight crews, aircraft, or users of the Lago Vista TX - Rusty Allen Airport, you should consider listing it here.  To start the listing process, click on the button below
 
Add a business
 

Other Pages about Lago Vista TX - Rusty Allen Airport

www.lagovistatexas.org/...
 
Update a link
 
Copyright © AirNav, LLC. All rights reserved. Privacy Policy  Contact